www.pogodaiklimat.ru

Погода и климат >> Архив погоды >> Узбекистан >> Бухара


ПОГОДА в Бухаре

  • Прогноз погоды в Бухаре
  • Монитор погоды в Бухаре

АРХИВ ПОГОДЫ в Бухаре

Время (UTC), дата Ветер
(напр.,м/с)
 
Видим.   Явления Облачность Т
(С)
Тd
(С)
f
(%)
Тe
(С)
Тes
(С)
Комфортность P
(гПа)
Po
(гПа)
Тmin
(С)
Tmax
(С)
R
(мм)
R24
(мм)
S
(см)
03 10.06 С 5 10 км ясно +21.0 +8.2 44 +22 +25 комфорт 1015.7 989.4
06 10.06 С 7 10 км 4/4 1000 м
[Cu hum]
+27.0 +5.6 25 +26 +29 жарко 1016.1 990.4 +16.3
09 10.06 С 7 10 км 4/4 1000 м
[Cu hum]
+27.8 +4.5 23 +27 +30 жарко 1015.9 990.3
12 10.06 С 6 10 км 5/5 1000 м
[Cu hum]
+28.4 +3.2 20 +27 +28 жарко 1015.3 989.7
15 10.06 С 3 10 км 3/0
[Ac trans]
+24.8 +4.5 27 +24 +24 комфорт 1016.0 990.1 +28.7
18 10.06 С 4 10 км 4/0
[Ac trans]
+22.1 +5.9 35 +23 +23 комфорт 1017.2 991.0 +28.7
21 10.06 С 3 10 км 6/0
[Ac trans]
+18.9 +6.8 45 +20 +20 1016.4 990.9
00 11.06 С 3 10 км 3/0
[Ac trans]
+16.6 +6.7 52 +16 +16 1017.0 990.4
03 11.06 С 5 10 км ясно +20.6 +8.6 46 +22 +25 комфорт 1017.4 991.1
06 11.06 С 6 10 км ясно +26.0 +5.8 27 +25 +32 комфорт 1016.8 991.0 +16.3
09 11.06 С 5 10 км ясно +29.5 +5.1 21 +28 +38 жарко 1015.9 990.4
12 11.06 С 4 10 км ясно +30.0 +4.1 19 +28 +33 жарко 1014.7 989.2
15 11.06 С 3 10 км ясно +27.0 +5.0 24 +26 +26 жарко 1014.6 988.9 +30.4
18 11.06 С 3 10 км ясно +22.0 +7.1 38 +23 +23 комфорт 1015.3 989.1 +30.4
21 11.06 С 2 10 км ясно +18.9 +7.0 46 +20 +20 1015.0 988.6
00 12.06 штиль 0 10 км ясно +17.5 +7.1 50 +18 +18 1014.2 987.8
03 12.06 штиль 0 10 км ясно +22.8 +8.8 41 +24 +31 комфорт 1014.9 988.8
06 12.06 С 4 10 км ясно +29.8 +4.6 20 +28 +40 жарко 1013.7 988.3 +16.9
09 12.06 В 3 10 км ясно +31.8 +3.8 17 +29 +45 жарко 1011.9 986.7
12 12.06 В 3 10 км ясно +32.3 +3.4 16 +30 +35 жарко 1010.3 985.2
15 12.06 С 2 10 км ясно +31.0 +5.1 20 +29 +29 жарко 1009.7 984.5 +32.5
18 12.06 С 4 10 км ясно +23.0 +6.4 34 +24 +24 комфорт 1010.4 984.5 +32.5
21 12.06 С 2 10 км ясно +21.8 +10.0 47 +23 +23 комфорт 1010.1 984.1
00 13.06 В 2 10 км ясно +19.0 +8.1 49 +20 +20 1009.6 983.3 +1.4
03 13.06 С 2 10 км ясно +25.7 +11.4 41 +27 +32 жарко 1009.4 983.7
06 13.06 С 5 10 км ясно +31.4 +7.8 23 +30 +39 жарко 1008.2 983.1 +18.1
09 13.06 С 4 10 км ясно +34.2 +4.6 16 +32 +44 жарко 1006.4 981.5
12 13.06 С 5 10 км ясно +35.0 +3.6 14 +32 +36 жарко 1004.2 979.5
15 13.06 С 4 10 км 4/0
[Ci fib]
+30.8 +7.7 24 +30 +30 жарко 1004.4 979.3 +35.4
18 13.06 СВ 4 10 км 5/0
[Ci fib]
+25.2 +4.1 26 +25 +25 комфорт 1005.5 979.8 +35.4
21 13.06 штиль 0 10 км 4/0
[Ci fib]
+23.4 +8.6 39 +25 +25 комфорт 1004.8 979.1
00 14.06 штиль 0 10 км ясно +20.6 +9.5 49 +22 +22 комфорт 1004.9 979.0
03 14.06 штиль 0 10 км ясно +28.3 +10.0 32 +29 +36 жарко 1005.5 980.2
06 14.06 С 3 10 км ясно +33.5 +7.8 20 +32 +46 жарко 1005.4 980.5 +19.3
09 14.06 штиль 0 10 км 3/3 1000 м
[Cu hum]
+36.4 +3.8 13 +33 +51 опасность
солнечного
удара
1004.6 979.9
12 14.06 штиль 0 10 км 5/3 1000 м
[Cu hum Ac trans]
+36.0 +3.6 13 +33 +38 жарко 1003.7 979.0
15 14.06 штиль 0 10 км 5/0
[Ci fib]
+33.0 +7.8 21 +31 +31 жарко 1003.6 978.7 +36.7
18 14.06 штиль 0 10 км 5/0
[Ci fib]
+33.0 +7.8 21 +31 +31 жарко 1003.6 978.7 +36.7
21 14.06 штиль 0 10 км 8/0
[Ac trans]
+26.5 +8.2 31 +26 +26 жарко 1004.0 978.6
00 15.06 С 6 10 км 10/0
[Ac trans]
+27.0 +5.9 26 +26 +26 жарко 1005.2 979.7
03 15.06 В 6
{20}
10 км {метель} 10/3 1500 м
[Cb calv Ac trans]
+26.7 +9.3 33 +27 +28 жарко 1008.8 983.2
06 15.06 Ю 3
{20}
10 км {метель} ясно +34.2 +5.8 17 +32 +47 жарко 1007.1 982.2 +26.2
09 15.06 З 6 10 км 3/3 1000 м
[Cu hum]
+36.7 +3.0 12 +33 +39 жарко 1005.8 981.1
12 15.06 СЗ 4 10 км ясно +36.1 +2.3 12 +33 +37 жарко 1005.3 980.6
15 15.06 З 3 10 км ясно +32.7 +4.6 17 +30 +30 жарко 1006.4 981.4 +37.0
18 15.06 С 3 10 км ясно +24.8 +6.2 30 +25 +25 комфорт 1008.3 982.6 +37.0
21 15.06 С 2 10 км ясно +21.8 +5.6 35 +22 +22 комфорт 1008.1 982.2
00 16.06 З 3 10 км ясно +21.4 +4.1 32 +22 +22 комфорт 1008.3 982.3
03 16.06 штиль 0 10 км ясно +27.2 +5.3 25 +26 +33 жарко 1009.2 983.6
06 16.06 З 4 10 км ясно +31.1 +0.9 14 +28 +40 жарко 1009.2 984.0 +21.0
09 16.06 З 6 10 км ясно +33.7 +1.7 13 +31 +38 жарко 1008.0 983.0
12 16.06 С 3 10 км ясно +34.6 +1.3 12 +31 +37 жарко 1007.0 982.1
15 16.06 С 2 10 км ясно +30.9 +8.4 25 +30 +30 жарко 1007.1 981.9 +35.0
18 16.06 С 3 10 км ясно +24.4 +2.3 24 +24 +24 комфорт 1008.7 982.9 +35.0
21 16.06 С 4 10 км ясно +21.5 +1.7 27 +21 +21 комфорт 1008.3 982.3

 

Местоположение метеостанции Бухара (Бухарская область, Узбекистан): широта 39.72 долгота 64.62 высота над уровнем моря 226 м.

В архиве по умолчанию представлена погода в Бухаре за последнюю неделю. Архивные данные за месяц целиком и за предыдущие месяцы, начиная с января 2011 года, Вы можете получить, выбрав интересующий диапазон дат из раскрывающегося списка и нажав кнопку "Ввод!".


*Определитесь, кто Вы:
робот инопланетянин человек

Внимание! Время в таблицах - всемирное. Для получения местного времени необходимо прибавить поправку, которая равна 5 ч.

Смотрите также архив погоды в соседних городах и на ближайших метеорологических станциях:

Погода в Каракуле (Бухарская область, Узбекистан) (70 км)
Погода в Навои (Навоийская область, Узбекистан) (77 км)
Погода в Айякагитме (Узбекистан) (107 км)
Погода в Туркменабаде (Лебапский велаят, Туркменистан) (113 км)
Погода в Нурате (Навоийская область, Узбекистан) (129 км)
Погода в Карши (Кашкадарьинская область, Узбекистан) (139 км)
Погода в Бурдалыке (Лебапский велаят, Туркменистан) (141 км)
Погода на Каттакурган вдхр (Самаркандская область, Узбекистан) (144 км)
Погода в Нурабаде (Самаркандская область, Узбекистан) (146 км)
Погода в Машикудуке (Навоийская область, Узбекистан) (158 км)

Пояснения к столбцам:

Ветер - указаны скорость ветра в м/с - средняя за 10 мин, порывы в срок и между сроками (в фигурных скобках) и направление, откуда дует ветер: С - северный, СВ - северо-восточный, В - восточный, ЮВ - юго-восточный, Ю - южный, ЮЗ - юго-западный, З - западный, СЗ - северо-западный.
Видимость - горизонтальная дальность видимости в метрах или километрах. При видимости от 1 до 10 км при отсутствии осадков обычно наблюдается дымка, при ухудшении видимости до 1 км и менее - туман. В сухую погоду видимость может ухудшаться дымом, пылью или мглою.
Явления - указаны атмосферные явления, наблюдавшиеся в срок или в последний час перед сроком; фигурными скобками обозначены явления, наблюдавшиеся между сроками (за 1-3 часа до срока); квадратными скобками обозначены град или гололедные отложения с указанием их диаметра в мм.
Облачность - указаны через наклонную черту общая и нижняя облачность в баллах и высота нижней границы облаков в метрах; квадратными скобками обозначены формы облаков: Ci - перистые, Cs - перисто-слоистые, Cc - перисто-кучевые, Ac - высококучевые, As - высокослоистые, Sc - слоисто-кучевые, Ns - слоисто-дождевые, Cu - кучевые, Cb - кучево-дождевые. Подробнее классификацию облаков см. в Атласе облаков (PDF).
T - Температура воздуха - температура, измеренная на высоте 2 м над землей.
Td - Температура точки росы - температура, при понижении до которой содержащийся в воздухе водяной пар достигнет насыщения.
f - Относительная влажность воздуха - влажноcть воздуха, измеренная на высоте 2 м над землей.
Te - Эффективная температура - температура, которую ощущает одетый по сезону человек в тени. Характеристика душности погоды. При расчете учитывается влияние влажности воздуха и скорости ветра на теплоощущения человека.
Tes - Эффективная температура на солнце - температура, которую ощущает человек, с поправкой на солнечный нагрев. Характеристика знойности погоды. Зависит от высоты солнца над горизонтом, облачности и скорости ветра. Ночью, в пасмурную погоду, а также при ветре 12 м/с и более поправка равна нулю.
P - Атмосферное давление - приведенное к уровню моря атмосферное давление.
Po - Атмосферное давление - измеренное на уровне метеостанции атмосферное давление.
Tmin - Минимальная температура - минимум температуры воздуха на высоте 2 м над землей.
Tmax - Максимальная температура - максимум температуры воздуха на высоте 2 м над землей.
R - Количество осадков - Количество выпавших осадков за период времени, мм. При наведении курсора мыши на число - период времени, за который выпало указанное количество осадков.
R24 - Количество осадков - Количество выпавших осадков за 24 часа, мм.
S - Снежный покров - Высота снежного покрова, см. При наведении курсора мыши на число - состояние снежного покрова и степень покрытия местности в баллах.